EB1HRW Weather Reports


time (UTC)temp
C
wind
direction
speed
KPH
gust
KPH
rain 1hr
cm
rain 24hr
cm
rain mn
cm
humidity
%
barometer
mb
20260507073857 10 37 6.4 16.1 0.00 0.00 0.00 82 1010.0
20260507072358 10 54 8.0 19.3 0.00 0.00 0.00 84 1010.0
20260507070856 8 27 11.3 16.1 0.00 0.00 0.00 85 1010.1
20260507065357 8 19 9.7 19.3 0.00 0.00 0.00 85 1010.1
20260507063858 8 40 16.1 12.9 0.00 0.00 0.00 85 1010.1
20260507062356 8 17 6.4 14.5 0.00 0.00 0.00 85 1010.3
20260507060857 8 34 9.7 14.5 0.00 0.00 0.00 85 1010.0
20260507055358 8 48 11.3 6.4 0.00 0.00 0.00 85 1010.0
20260507053857 8 34 0.0 8.0 0.00 0.00 0.00 85 1010.0
20260507052357 8 33 1.6 12.9 0.00 0.00 0.00 85 1010.0
20260507050858 8 53 3.2 16.1 0.00 0.00 0.00 84 1009.9
20260507045357 8 55 6.4 9.7 0.00 0.00 0.00 84 1009.8
20260507043858 7 41 6.4 11.3 0.00 0.00 0.00 84 1010.0
20260507042356 8 51 6.4 9.7 0.00 0.00 0.00 85 1010.1
20260507040857 8 45 4.8 9.7 0.00 0.00 0.00 84 1010.1
20260507035358 9 37 0.0 12.9 0.00 0.00 0.00 83 1010.2
20260507033858 9 49 6.4 11.3 0.00 0.00 0.00 82 1010.0
20260507032357 10 31 8.0 6.4 0.00 0.00 0.00 82 1009.9
20260507030858 10 36 0.0 8.0 0.00 0.00 0.00 81 1010.0
20260507025356 10 39 4.8 8.0 0.00 0.00 0.00 81 1009.9
20260507023857 10 30 3.2 8.0 0.00 0.00 0.00 81 1009.9
20260507022358 10 32 3.2 16.1 0.00 0.00 0.00 80 1010.0
20260507020857 10 50 9.7 17.7 0.00 0.00 0.00 79 1010.1
20260507015357 11 34 9.7 12.9 0.00 0.00 0.00 78 1010.1
20260507013858 10 23 3.2 0.0 0.00 0.00 0.00 81 1010.2
20260507012357 10 309 0.0 14.5 0.00 0.00 0.00 82 1010.4
20260507010857 10 24 8.0 14.5 0.00 0.00 0.00 82 1010.4
20260507005358 10 36 8.0 14.5 0.00 0.00 0.00 82 1010.6
20260507003857 10 30 9.7 14.5 0.00 0.00 0.00 82 1010.7
20260507002357 10 37 11.3 12.9 0.00 0.00 0.00 81 1010.9
20260507000858 10 43 8.0 12.9 0.00 0.00 0.00 81 1011.0
20260506235357 10 34 6.4 9.7 0.00 0.00 0.00 80 1011.0
20260506233858 10 33 0.0 12.9 0.00 0.00 0.00 78 1011.1
20260506232356 10 32 11.3 12.9 0.00 0.00 0.00 77 1011.0
20260506230857 10 51 8.0 14.5 0.00 0.00 0.00 76 1011.1
20260506225358 11 34 14.5 11.3 0.00 0.00 0.00 73 1011.0
20260506223857 11 30 8.0 14.5 0.00 0.00 0.00 72 1011.2
20260506222357 11 37 8.0 14.5 0.00 0.00 0.00 73 1011.2
20260506220859 11 41 9.7 19.3 0.00 0.00 0.00 72 1011.1
20260506215358 11 30 12.9 0.0 0.00 0.00 0.00 72 1011.3
20260506213857 11 33 0.0 0.0 0.00 0.00 0.00 70 1011.2
20260506212357 11 33 0.0 0.0 0.00 0.00 0.00 68 1011.2
20260506210858 12 33 0.0 0.0 0.00 0.00 0.00 69 1011.4
20260506205357 12 32 0.0 0.0 0.00 0.00 0.00 69 1011.3
20260506203858 12 32 0.0 0.0 0.00 0.00 0.00 66 1011.2
20260506200858 13 34 0.0 0.0 0.00 0.00 0.00 58 1011.0
20260506195357 13 34 0.0 0.0 0.00 0.00 0.00 59 1010.9
20260506193857 14 34 0.0 0.0 0.00 0.00 0.00 57 1010.8
20260506192358 15 34 0.0 9.7 0.00 0.00 0.00 54 1010.6
20260506190857 15 25 0.0 0.0 0.00 0.00 0.00 51 1010.6
20260506183858 16 34 0.0 11.3 0.00 0.00 0.00 47 1010.7
20260506180858 16 49 0.0 12.9 0.00 0.00 0.00 47 1010.6
20260506175357 16 25 6.4 9.7 0.00 0.00 0.00 47 1010.6
20260506173857 16 32 0.0 9.7 0.00 0.00 0.00 47 1010.7
20260506172358 16 33 3.2 11.3 0.00 0.00 0.00 48 1010.8
20260506170858 17 19 3.2 0.0 0.00 0.00 0.00 44 1010.8
20260506162358 16 356 0.0 8.0 0.00 0.00 0.00 45 1011.3
20260506160857 16 20 0.0 4.8 0.00 0.00 0.00 45 1011.4
20260506155358 16 58 0.0 14.5 0.00 0.00 0.00 45 1011.5
20260506153857 16 39 9.7 14.5 0.00 0.00 0.00 46 1011.5
20260506152358 16 13 3.2 8.0 0.00 0.00 0.00 47 1011.6
20260506143901 16 34 9.7 14.5 0.00 0.00 0.00 46 1012.1
20260506140859 16 59 4.8 9.7 0.00 0.00 0.00 49 1012.4
20260506133858 16 42 8.0 8.0 0.00 0.00 0.00 46 1012.8
20260506132359 16 136 0.0 11.3 0.00 0.00 0.00 47 1013.0
20260506130900 16 59 6.4 8.0 0.00 0.00 0.00 49 1013.0
20260506125359 15 247 0.0 8.0 0.00 0.00 0.00 47 1013.2
20260506123859 16 295 0.0 8.0 0.00 0.00 0.00 49 1013.3
20260506122400 15 66 0.0 9.7 0.00 0.00 0.00 50 1013.5
20260506120859 15 274 0.0 9.7 0.00 0.00 0.00 50 1013.5
20260506115359 15 260 1.6 6.4 0.00 0.00 0.00 52 1013.7
20260506113858 13 227 4.8 9.7 0.00 0.00 0.00 54 1014.0
20260506112359 13 188 3.2 12.9 0.00 0.00 0.00 56 1014.1
20260506110859 13 321 6.4 12.9 0.00 0.00 0.00 57 1014.2
20260506105359 12 252 1.6 14.5 0.00 0.00 0.00 60 1014.2
20260506103859 12 54 8.0 16.1 0.00 0.00 0.00 59 1014.3
20260506102357 12 316 1.6 17.7 0.00 0.00 0.00 65 1014.2
20260506100858 11 37 11.3 16.1 0.00 0.00 0.00 60 1014.3
20260506095357 11 38 8.0 14.5 0.00 0.00 0.00 67 1014.3
20260506093857 11 353 6.4 14.5 0.00 0.00 0.00 75 1014.4
20260506092358 10 37 11.3 9.7 0.00 0.00 0.00 77 1014.5
20260506090857 10 27 9.7 9.7 0.00 0.00 0.00 82 1014.5
20260506085357 8 29 6.4 9.7 0.00 0.00 0.00 84 1014.4
20260506082357 8 51 3.2 6.4 0.00 0.00 0.00 85 1014.5
20260506080857 7 52 3.2 0.0 0.00 0.00 0.00 84 1014.5